RH
88 87 72 59 56 55 53 64 52 51 46 50 54 60 53 54 49 50 46 43 40 38 41 42 42 40 49 52 52 41 41 30 42 37 50 50 44 35 26 21 28 33 27 22
88 82 75 58 58 63 67 52 52 43 42 54 56 54 54 56 49 53 47 47 42 41 44 42 48 52 52 53 50 41 35 32 40 33 39 46 44 44 37 31 32 32 21 12
86 84 78 56 53 53 56 44 58 42 47 49 40 42 44 48 53 51 48 46 40 39 42 45 47 48 55 55 56 60 40 35 24 19 26 37 43 49 40 30 37 22 20 12
82 83 81 57 50 47 50 51 55 58 54 43 46 43 42 38 40 46 42 42 42 39 36 37 47 53 50 51 55 46 31 34 44 37 37 41 40 38 49 40 28 22 17 24
78 82 81 66 49 43 57 47 46 51 50 50 38 45 49 42 51 44 41 43 45 39 36 38 36 46 42 41 43 46 39 51 45 47 46 45 42 33 35 41 39 40 35 34
76 80 81 75 53 44 59 77 67 46 56 42 35 42 47 47 45 50 49 45 43 44 50 46 49 49 51 49 42 46 40 44 41 31 40 34 29 22 33 37 39 33 28 20
76 79 82 79 69 56 54 66 64 47 47 44 36 45 46 48 47 44 51 46 38 54 46 45 40 48 52 51 57 49 42 42 50 50 31 40 22 25 30 31 28 32 33 29
80 77 82 79 79 64 57 63 68 55 46 54 47 46 50 51 50 53 52 58 54 46 40 38 38 38 40 54 64 61 48 43 51 51 39 28 31 34 34 31 27 28 31 30
79 79 80 80 81 74 66 65 68 64 48 41 45 47 49 44 47 51 62 58 56 44 40 36 41 36 38 43 56 62 57 46 42 49 48 34 26 32 32 33 30 28 34 34
79 80 79 81 80 82 71 69 69 73 59 55 46 44 45 49 49 46 59 59 57 49 43 41 42 43 42 39 44 61 65 64 59 49 50 37 30 34 36 34 31 33 36 35
81 80 80 79 82 82 83 75 72 67 66 59 65 51 51 55 51 45 58 56 59 54 46 44 46 44 40 42 42 52 49 59 61 61 64 61 39 40 34 29 34 35 36 36
86 85 83 78 81 80 86 78 80 73 68 65 77 72 66 63 59 50 64 53 55 48 50 53 49 48 51 41 36 54 47 42 42 46 39 42 38 35 32 34 36 38 41 38
97 89 85 83 80 80 82 86 78 74 74 70 75 73 75 70 65 62 55 63 60 59 58 50 53 54 50 49 47 43 43 46 45 41 31 40 38 35 37 37 40 40 42 45
100 98 95 89 84 85 79 80 82 74 73 77 63 73 74 73 71 69 68 67 71 67 65 62 58 54 49 49 49 44 41 48 45 45 38 36 36 39 40 43 44 46 45 47
99 100 100 98 93 86 89 88 77 80 70 78 72 79 79 76 72 72 73 73 68 65 69 73 64 62 61 68 66 57 43 39 44 37 34 36 36 41 47 49 47 46 49 49
94 94 100 100 100 94 99 93 89 84 83 85 89 76 80 83 79 81 79 74 71 68 63 67 65 70 66 72 69 49 43 40 37 39 44 49 50 51 49 48 46 45 50 51
98 96 91 100 100 95 92 84 67 86 81 83 95 85 79 86 85 84 80 84 78 70 70 76 70 72 77 77 61 38 43 45 50 54 57 57 55 49 49 47 45 47 40 42
90 96 80 93 100 100 100 78 76 88 74 80 98 89 78 83 84 85 86 82 80 82 77 82 82 81 84 94 62 59 58 59 59 58 58 54 54 55 53 47 45 39 36 34
82 84 72 93 100 100 98 91 89 85 74 94 92 94 88 82 89 85 85 80 89 85 88 84 85 82 96 71 64 63 63 61 57 63 61 60 63 59 57 52 44 40 35 33
74 79 99 100 100 98 96 100 99 100 98 99 98 80 86 84 87 90 87 85 86 94 79 90 97 83 65 61 62 60 63 64 63 77 69 63 68 58 52 47 42 37 34 32
75 95 98 100 100 100 98 100 100 99 100 99 96 79 86 81 86 84 82 90 86 98 85 89 84 82 66 64 68 64 58 58 60 62 59 61 66 69 58 43 40 36 36 39
87 99 100 98 99 100 100 98 99 99 95 99 97 82 78 84 76 82 92 88 92 95 83 93 92 73 66 72 64 61 52 49 52 58 58 50 49 54 48 41 43 43 45 46
77 99 100 100 99 98 97 98 99 100 98 98 96 96 86 94 89 90 93 97 95 86 95 87 77 65 63 67 67 56 47 47 43 42 44 41 41 41 40 43 47 48 48 48
99 99 100 96 93 94 88 82 86 85 94 93 85 97 88 90 94 91 96 92 83 98 95 88 75 65 60 64 61 46 47 41 46 63 51 49 47 50 50 48 48 52 51 50
99 98 95 96 82 92 91 92 88 89 82 84 89 91 82 96 96 94 92 95 92 87 85 77 72 66 68 68 60 43 43 50 61 55 61 60 61 59 53 46 45 51 54 53
100 99 97 91 93 89 98 94 98 90 82 81 81 95 97 97 92 94 91 87 90 80 86 75 64 73 69 66 56 51 49 46 49 55 55 57 57 58 54 48 48 48 50 55
100 97 90 87 91 88 91 81 84 82 82 89 91 97 91 93 94 93 85 90 79 76 76 74 70 70 65 58 52 50 52 51 51 54 55 56 54 58 66 70 52 52 53 53
Wind_Speed
20 16 21 24 27 22 5 1 1 8 5 2 2 2 2 2 2 1 2 2 4 3 3 3 2 2 2 4 3 2 2 3 4 2 2 2 2 1 1 2 3 2 2 4
16 21 19 22 26 22 5 2 2 5 3 3 3 2 2 3 3 4 4 2 1 1 2 2 3 2 2 5 2 2 1 1 4 2 2 1 3 2 2 3 1 6 3 2
15 18 18 19 23 20 3 0 1 3 4 3 3 2 2 2 2 3 3 3 1 1 2 3 4 2 1 2 2 4 1 2 3 2 4 3 4 5 7 4 3 4 9 11
12 15 18 17 21 17 3 3 2 1 2 4 4 2 1 1 1 2 3 3 5 3 2 2 3 3 2 2 6 2 2 2 2 2 3 3 3 6 10 11 10 8 6 7
10 13 17 17 19 12 6 2 0 1 2 0 1 3 3 2 1 4 3 2 2 3 3 2 2 1 1 3 3 3 4 2 2 0 2 2 6 11 12 13 12 15 17 22
8 12 15 16 17 9 4 2 1 2 2 1 1 1 1 1 1 2 3 1 1 5 3 2 4 5 5 4 2 2 2 2 3 2 4 6 8 7 12 4 6 6 7 5
7 8 12 12 13 12 4 2 0 0 2 1 1 1 1 2 1 2 1 2 1 2 6 7 6 9 8 8 8 4 2 3 1 2 3 2 2 2 3 8 10 11 14 15
7 6 7 10 9 10 5 2 1 0 1 0 2 2 2 3 2 2 1 3 3 3 0 1 1 2 2 5 7 6 4 1 2 1 2 6 2 3 5 3 1 4 7 7
8 6 5 7 7 7 4 5 3 0 1 1 0 2 2 2 2 3 2 2 1 1 0 1 1 0 1 1 1 3 3 3 1 1 2 3 2 3 3 2 2 3 5 5
11 9 5 4 5 4 4 2 3 1 0 2 3 2 1 2 1 2 2 3 3 1 1 1 2 0 1 2 3 3 3 2 4 4 4 8 4 5 5 2 2 1 3 4
13 11 7 5 3 4 3 0 1 1 0 1 2 2 3 2 2 2 4 3 2 1 3 2 2 3 3 2 2 4 5 7 4 3 4 5 5 6 4 2 1 2 5 7
13 11 10 8 6 2 3 1 0 1 1 1 2 3 3 2 1 2 2 1 2 2 2 1 2 2 2 2 3 2 4 5 3 8 3 1 7 3 2 0 5 7 7 11
16 13 12 10 9 6 1 2 1 0 1 1 1 3 3 4 4 3 2 2 1 2 1 2 1 4 3 4 5 3 5 4 3 2 5 8 11 9 8 9 8 8 9 11
3 19 14 13 12 11 6 3 2 1 2 1 1 0 1 2 3 3 2 2 4 4 0 1 2 3 3 2 1 4 2 7 5 6 14 11 9 5 0 5 7 9 10 10
7 4 19 17 14 13 11 9 8 7 1 1 2 2 2 1 2 4 4 5 3 2 2 2 3 1 3 1 1 6 7 8 5 7 5 6 8 1 4 7 10 9 10 10
9 6 6 17 19 15 6 3 12 18 8 1 2 2 1 3 4 6 4 4 2 1 2 2 2 1 2 3 4 7 10 11 12 11 2 3 7 6 2 5 7 7 7 4
10 9 8 5 18 23 6 3 3 17 13 1 2 2 1 2 2 2 2 2 1 1 2 3 2 3 3 3 8 3 8 7 6 3 2 5 4 3 4 5 6 4 1 1
11 11 9 9 8 22 11 3 6 23 4 2 2 2 1 3 2 2 1 2 1 1 0 1 2 1 2 6 10 7 3 3 5 7 7 5 4 8 8 6 4 4 4 5
12 13 7 1 6 6 7 16 16 13 3 2 3 3 2 2 1 2 1 1 2 1 2 2 2 4 8 10 11 8 6 4 4 3 6 8 9 10 10 7 5 5 5 5
13 8 1 2 1 7 21 6 1 1 2 2 4 2 3 3 2 2 3 1 1 2 3 3 4 6 12 14 12 5 6 5 3 2 4 2 3 3 4 3 3 3 4 5
3 2 1 3 19 2 2 3 3 3 3 4 3 5 5 6 3 3 2 3 2 2 2 4 4 5 5 2 6 7 6 6 6 7 5 5 6 5 3 1 3 5 7 4
1 2 3 5 1 0 3 5 4 5 5 4 5 4 3 4 3 3 3 3 3 5 4 3 4 5 4 6 5 5 5 5 4 4 3 1 1 3 4 5 5 4 1 3
3 2 1 3 3 5 7 10 4 4 5 5 4 4 4 3 2 3 3 6 5 5 4 5 6 3 4 8 5 4 4 5 7 7 7 7 7 6 4 3 0 3 5 7
4 4 6 6 6 7 6 4 5 3 5 10 7 4 3 2 4 3 5 3 4 4 5 8 3 6 8 8 6 6 6 7 8 6 8 6 3 2 2 3 6 7 9 13
5 4 6 9 6 2 1 1 1 2 7 10 5 3 2 3 4 3 4 5 5 7 6 3 3 5 9 9 8 7 7 6 5 6 4 2 1 2 5 8 11 11 13 16
4 6 6 1 1 3 1 1 2 2 6 2 2 3 4 5 4 5 9 7 8 4 4 2 2 6 7 8 7 6 7 7 5 3 1 1 2 5 9 13 14 14 14 14
6 7 5 3 1 1 3 4 5 5 6 4 3 7 6 4 4 5 5 6 3 2 2 2 6 9 9 8 8 8 6 4 2 1 2 5 8 10 9 9 14 15 15 17
Wind_Direction
349 356 1 1 1 4 8 50 41 345 9 35 38 57 52 339 1 328 148 104 57 46 36 67 98 95 30 360 310 31 41 92 107 68 35 347 5 40 308 262 168 71 347 278
349 355 358 360 2 3 349 42 327 343 1 81 59 93 76 31 20 33 2 87 29 139 89 108 49 59 18 357 7 28 86 59 120 125 166 167 231 160 103 96 44 214 248 238
347 354 355 359 0 358 25 353 39 24 58 11 94 131 45 84 56 44 10 26 340 20 80 26 134 139 58 5 72 41 265 79 19 83 85 99 179 190 198 207 196 208 231 268
339 349 353 359 0 360 51 12 80 18 22 47 46 4 54 72 59 58 29 76 51 25 53 37 49 11 19 35 359 12 350 105 100 135 151 184 219 195 190 207 225 239 299 261
334 343 348 358 3 5 67 32 199 145 93 298 19 11 47 21 56 349 16 86 55 27 85 44 63 95 41 23 41 38 3 70 10 253 44 301 268 243 228 229 249 260 271 280
334 339 345 357 11 17 76 50 107 285 22 55 184 71 97 85 124 67 33 15 94 74 71 57 78 77 79 72 49 74 39 108 12 1 351 313 273 270 208 202 230 245 255 298
328 327 340 355 13 31 75 86 114 281 107 326 48 149 133 128 55 125 42 33 19 95 121 113 104 72 72 68 54 22 120 102 36 296 288 250 103 105 149 233 259 232 270 288
281 314 325 350 3 22 41 61 95 80 105 159 176 169 121 124 73 78 78 33 23 154 156 161 144 113 138 47 38 22 11 114 95 285 256 311 155 181 174 206 277 192 231 284
254 276 287 345 355 9 34 42 72 89 177 213 67 158 180 169 153 139 88 90 126 124 133 227 257 283 107 149 103 39 61 57 283 155 266 268 106 175 173 166 168 161 218 289
234 245 256 288 344 354 14 38 35 48 146 174 186 211 177 124 118 107 149 162 162 290 183 207 226 189 359 215 201 167 158 173 215 191 242 272 192 148 153 238 58 174 225 282
225 233 233 237 293 342 350 239 16 63 156 225 217 191 158 142 207 199 132 155 170 137 195 203 170 210 178 219 174 195 194 175 192 189 232 285 136 125 216 67 215 268 292 283
220 225 226 225 224 318 325 269 211 3 213 344 240 240 244 216 68 160 170 0 159 168 122 213 123 197 189 233 252 219 245 218 191 214 244 39 205 278 189 39 309 311 298 306
219 224 229 226 223 211 259 280 255 138 41 224 235 229 249 239 222 196 198 211 158 166 11 143 122 237 169 210 229 240 226 189 243 225 222 244 240 256 273 281 280 298 295 291
210 219 229 230 226 220 221 242 236 184 89 267 168 268 239 243 229 196 163 92 106 94 79 131 180 250 196 243 310 245 351 160 208 249 277 277 265 235 210 307 288 289 291 281
281 229 223 226 223 223 228 245 236 225 192 290 307 309 253 243 207 165 155 148 137 164 154 170 223 233 192 145 267 243 193 224 223 262 299 251 284 150 319 302 307 313 312 308
333 284 262 223 216 207 204 279 234 215 181 125 282 53 37 59 114 117 113 134 122 160 195 191 215 271 233 227 241 245 225 234 247 256 184 256 290 290 271 291 307 314 307 301
341 316 266 262 212 191 185 221 298 182 169 157 286 237 76 93 102 64 98 57 97 227 171 216 221 191 220 253 253 220 241 243 230 210 164 258 218 261 303 291 294 290 330 112
332 322 306 254 217 193 199 193 149 158 144 115 229 246 184 182 139 130 7 144 171 151 261 169 219 146 226 250 246 257 243 257 243 232 220 255 286 284 273 258 242 217 179 166
328 320 299 219 191 183 171 192 167 183 200 200 173 206 204 140 88 93 123 245 172 80 232 225 175 208 225 233 235 230 195 199 163 179 239 260 257 270 274 257 229 221 186 189
321 314 194 195 219 161 148 114 148 250 225 207 204 120 152 160 164 142 139 283 152 225 205 126 228 254 252 249 235 198 185 218 191 237 270 239 279 287 313 247 236 212 184 183
316 317 56 94 144 149 131 165 210 194 221 190 173 182 158 194 151 163 216 165 165 230 178 219 244 258 242 202 210 199 194 206 218 241 273 271 258 258 291 188 154 153 158 167
309 299 98 149 356 23 165 203 214 210 215 160 172 179 119 155 183 129 176 172 175 240 140 229 253 250 202 165 179 186 201 202 199 194 219 237 191 190 156 129 125 125 137 281
249 261 148 159 189 225 207 202 204 192 170 169 157 129 139 140 206 101 162 184 214 124 200 238 236 241 195 177 166 175 175 161 136 124 115 108 101 103 104 112 190 295 297 298
184 192 201 201 204 228 206 193 180 179 140 150 144 140 152 140 158 147 188 131 142 207 233 235 238 212 183 178 173 155 160 154 139 134 132 131 124 80 8 316 300 297 289 294
197 205 212 217 223 251 18 326 68 354 153 145 120 98 131 154 156 179 116 163 228 225 232 231 246 191 163 169 168 161 154 146 133 145 157 159 52 336 303 302 300 297 297 296
219 222 239 211 222 221 136 101 114 177 142 112 88 145 174 195 168 157 205 179 219 230 219 210 144 166 167 161 151 159 152 149 150 165 182 306 300 284 283 293 297 304 300 297
207 223 218 183 329 232 172 167 171 172 171 194 159 187 199 106 183 214 194 213 228 225 226 202 173 166 160 150 143 145 150 150 173 236 281 284 285 283 287 290 305 308 306 303